SCOUT B DEB, 2516

Orbit data source: Space-Track

SCOUT B DEB, 2516 is space debris in LEO originally from a launch on Fri, 10 Jun 1966 UTC launched from the Wallops Island (WLPIS). Debris objects in space refer to the collection of defunct objects orbiting the Earth. Examples of debris include non-operational satellites, rocket bodies, and fragments generated from explosions, collisions, or faulty payload assembly.

Loading next visibility...
Identifier
2516, 1966-052D
Orbit
LEO
Last TLE update
2 weeks ago
Origin
Manufacturer
Unknown
Mission
Spacecraft
Bus & Motor
Unknown
Mass
Unknown
Launch date (UTC)
1966-06-10 (59 years ago)
Launch vehicle
Unknown
Launch site
Wallops Island (WLPIS)
Object type
Payload
Rocket body
Debris
Shape & HBR
Unknown
Radar Cross Section
Small (<0.1 m²)

Expand to show TLE details & history

TLE from 2 weeks ago
0 SCOUT B DEB
1 02516U 66052D   25170.42899581  .00000288  00000-0  63963-3 0  9992
2 02516  41.0195 224.6402 2217539 321.8647  24.3766 10.00720285287758
Epoch: 2025-06-19T10:17Z
TLE epoch observation values (Epoch: 2025-06-19T10:17:45.237Z)
Latitude
0.00002°
Longitude
162.30493°
Altitude
987.257 km
Speed
8.028 km/s
True Right ascension
14h 58m 33s
True Declination
0° 00' 00"
Sunlit
Object was in full shadow at epoch
Visualization orbit readout
Latitude
-14.1733°
Longitude
-29.57583°
Altitude
4,452.601 km
Speed
5.46 km/s
Apparent Right ascension
03h 55m 16s
Apparent Declination
-31° 12' 19"
Sunlit
Object is in daylight
Visualization observer readout
Local Sidereal Time
20:36:41
Azimuth
104.802° ESE
Elevation
-33.573°
Doppler factor
1
Orbital elements
Apogee altitude
4,737.447 km
Perigee altitude
702.389 km
Semi-major axis
9,098.055 km
Eccentricity
0.22175
Inclination
41.0195°
RAAN
224.6402°
Arg. of periapsis
321.8647°
True anomaly
Unknown
Mean anomaly
24.3766°
Eccentric anomaly
Unknown
Mean motion
2.50104 °/min
Orbital period
143.94 mins
BSTAR
0.00063963
Loading maneuver chart data...
Loading SW <> Apogee altitude chart data...
Loading historical data...
Loading historical data...
Loading historical data...
Loading historical data...
Loading historical data...
Loading historical data...
Loading historical data...
Other satellites on launch #52 in the year 1966 (1966-06-10 UTC)

SCOUT B DEB Visibility forecast

Observer location: undefined°, undefined°

Span
Click to sort rows by Start time (UTC) header in descending order
Start Az.
Max El. time (UTC)
Max El. Az.
Max El.
End time (UTC)
End Az.
43 mins2025-07-01 10:22:28.807Z286.722° WNW2025-07-01 10:37:28.807Z215.289° SW42.635°2025-07-01 11:05:28.807Z134.876° SE
39 mins2025-07-01 12:58:28.807Z278.322° WNW2025-07-01 13:14:28.807Z229.259° WSW28.021°2025-07-01 13:37:28.807Z176.98° S
9 mins2025-07-02 02:52:28.807Z162.572° S2025-07-02 02:55:28.807Z126.091° SE20.8°2025-07-02 03:01:28.807Z83.282° E
20 mins2025-07-02 05:20:28.807Z243.991° WSW2025-07-02 05:25:28.807Z181.579° SSW44.534°2025-07-02 05:40:28.807Z76.508° E
32 mins2025-07-02 07:50:28.807Z277.884° WNW2025-07-02 08:00:28.807Z70.344° E44.933°2025-07-02 08:22:28.807Z101.587° ESE
|